Location: Saint-Gilles les Bains
(21.0539°S, 55.2287°E)
Time: 06:41:10
(UTC+04:00)

Hubble Space Telescope - Pass Details

Date: 22 June 2021
Orbit: 535 x 539 km, 28.5° (Epoch: 28 July)

Event Time Altitude Azimuth Distance (km) Brightness Sun altitude
Exits shadow 05:13:42 69° 156° (SSE) 577 0.8 -23.0°
Drops below altitude 10° 05:17:47 10° 77° (ENE) 1,791 4.6 -22.1°
Sets 05:20:03 0° 75° (ENE) 2,679 5.9 -21.6°
